Rallye Mare e Machja 2017
Le 10,11, 12 Novembre
1 1 LEANDRI Jean-Mathieu/GORGUILO Anthony Skoda Fabia R 5 10:15,8 72km/h
2 8 GALEANI Jean-Joseph/LEONARDI Pierre-Marien Mitsubishi Evo 9 R 4 10:32,4 +00:16,6 +00:16,6
3 2 GORDON Jean Pierre/GORDON Fabrice Ford Fiesta R 5 10:41,2 +00:25,4 +00:08,8
4 4 PISANO Mickaël/BERTHOLLE Olivier Ford Fiesta R 5 10:44,3 +00:28,5 +00:03,1
5 26 ANDREUCCI Frédéric/LECA Nicolas Renault Clio 16V FA 6K 10:44,5 +00:28,7 +00:00,2
6 7 LEFEBVRE Frédéric/DINI Gilbert Mitsubishi Evo 9 FA 8 10:45,1 +00:29,3 +00:00,6
7 40 ALERINI Paul/BARICHELLA Tony Peugeot 208 Vti R 2 10:48,0 +00:32,2 +00:02,9
8 41 FIORI Jean-Antoine/TAVERA Julien Citroën C2 R2 R 2 10:56,1 +00:40,3 +00:08,1
9 43 SERRA Dominique/BURESI Francois-Xavier Peugeot 208 Vti R 2 11:04,0 +00:48,2 +00:07,9
10 28 VANNUCCI Louis/DE BARTOLO Fabrice Citroën Saxo S1600 FA 6K 11:06,6 +00:50,8 +00:02,6
11 3 MARTINI Jean-Philippe/FIESCHI Ambroise Peugeot 208 T16 R 5 11:08,6 +00:52,8 +00:02,0
12 50 CHASSAING Philippe/BACCHIOLELLI Jean-Baptiste Renault Clio Ragnotti FN 3 11:21,4 +01:05,6 +00:12,8
13 45 BUCCI Pierre-Laurent/CAVIGLIOLI Caroline Citroën C2 R2 Max R 2 11:29,9 +01:14,1 +00:08,5
14 14 GAMBARELLI Anghjulu/CASANOVA Miguel Renault Clio F2 14 11:31,7 +01:15,9 +00:01,8
15 5 RENUCCI Kathia/PAOLINI Angélique Peugeot 207 S2000 A 7S 11:34,1 +01:18,3 +00:02,4
16 64 VENTURI Christian/PIERAZZI Arnaud Peugeot 205 Rallye FA 5 11:43,6 +01:27,8 +00:09,5
17 51 DE LA FOATA Paul/TERRONI Cédric Renault Clio Ragnotti N 3 11:44,4 +01:28,6 +00:00,8
18 33 MARCHINI Jean Paul/SIMONETTI Johanna Peugeot 206 Xs A 6K 11:46,1 +01:30,3 +00:01,7
19 34 MARIANI Anthony/HELM Vivien Peugeot 206 Xs FA 6K 11:49,2 +01:33,4 +00:03,1
20 58 RENUCCI Antoine/SIMEONI Jean-Marc Renault Clio Ragnotti FN 3 11:51,0 +01:35,2 +00:01,8
21 42 GERONIMI Dominique/GARCIA Dann Citroën C2 Vts R 2 11:53,9 +01:38,1 +00:02,9
22 6 GIOVANNANGELI Jean Baptiste/SANTARELLI Coralie BMW M3 FA 8 12:00,9 +01:45,1 +00:07,0
23 65 LORENZONI Philippe/CATELLAGGI Julie Honda Civic Eg6 FN 2 12:02,7 +01:46,9 +00:01,8
24 47 GIANNINI Eric/GIANNINI Anthony Peugeot 208 R2 R 2 12:03,2 +01:47,4 +00:00,5
25 15 FILMONT Jérôme/VIGNOLI Jean-Francois Peugeot 306 S16 F2 14 12:07,4 +01:51,6 +00:04,2
26 54 DE MEYER Jean-Michel/FRATTI Eric Renault Clio Ragnotti N 3 12:08,7 +01:52,9 +00:01,3
27 44 ANTONA Julien/MANZAGGI Nicolas Citroën C2 R2 Max R 2 12:10,6 +01:54,8 +00:01,9
28 68 NIVAGGIONI Jean-Toussaint/PONSOT Sébastien Citroën Saxo Vts FN 2 12:15,8 +02:00,0 +00:05,2
29 10 ROSSI Yannick/VOLPEI Baptiste Mitsubishi Lancer Evo 9 FN 4 12:18,4 +02:02,6 +00:02,6
30 66 MAESTRACCI François/CASANOVA Sébastien Peugeot 106 FN 2 12:21,0 +02:05,2 +00:02,6
31 46 BURESI Adrien/BURESI Romain Peugeot 208 R2 R 2 12:21,8 +02:06,0 +00:00,8
32 9 CHIARONI Pascal/BRUNELLI Anne-Laure Renault Clio Sport Max R 3 12:24,9 +02:09,1 +00:03,1
33 48 PAOLI Benjamin/MOSSA Sebastien Peugeot 208 Vti R 2 12:25,2 +02:09,4 +00:00,3
34 49 MUSELLI Jean-Philippe/MASSON Elodie Renault Clio FN 3 12:31,0 +02:15,2 +00:05,8
35 62 SALINI Laura/PERETTI Myriam Citroën Saxo FA 6 12:38,4 +02:22,6 +00:07,4
36 72 PAPON Jean-Noel/AMBROSI Céline Citroën Saxo Vts F2 12 12:38,9 +02:23,1 +00:00,5
37 35 MARTINETTI Jean-Laurent/DELCLAUD Christian Peugeot 206 Xs A 6K 12:41,5 +02:25,7 +00:02,6
38 59 MARCHETTI Michel/MAUREL Virginie Citroën Saxo Vts F2 13 12:44,1 +02:28,3 +00:02,6
39 57 RASIGNI Romain/JOVER Denis Renault Clio Ragnotti N 3 12:48,3 +02:32,5 +00:04,2
40 23 ROBERT Alexandre/MILIANI Pascal Peugeot 205 F2 14 12:48,8 +02:33,0 +00:00,5
41 22 RENUCCI Jacques-Andre/RENUCCI Daniel Peugeot 205 Gti F2 14 12:49,7 +02:33,9 +00:00,9
42 61 RENUCCI Antoine/RENUCCI Anthony Peugeot 205 Rallye F2 13 12:50,2 +02:34,4 +00:00,5
43 39 VITTORI Marc-Antoine/PORCU Pascal-Andre Citroën C2 A 6K 12:59,2 +02:43,4 +00:09,0
44 37 CASALTA Cyril/FERRACCI Nicolas Peugeot 206 FA 6K 13:09,5 +02:53,7 +00:10,3
45 74 PINELLI Jean-Pierre/CANEGGIANI Dylan Peugeot 205 Rallye F2 12 13:11,9 +02:56,1 +00:02,4
46 67 CASABIANCA Jacques-Francois/PENNACCHIONI Marcel Peugeot 106 S16 FN 2 13:12,9 +02:57,1 +00:01,0
47 76 NICOLI Gérard/GALTIERI Marie-Flore Citroën Ax Sport FN 1 13:40,6 +03:24,8 +00:27,7
48 36 GERONIMI Dominique-Noel/QUILICI Anthony Peugeot 106 S16 FA 6K 13:49,4 +03:33,6 +00:08,8
49 32 BROQUET John/STEFANAGGI Antoine Peugeot 106 S16 A 6K 14:01,3 +03:45,5 +00:11,9
50 75 TROMBI Philippe/DELATTRE Judicael Peugeot 106 F2 12 14:10,4 +03:54,6 +00:09,1
51 25 SALVADORI Paul-Joseph/CARRE Jessica Peugeot 205 GTI F2 14 14:17,7 +04:01,9 +00:07,3
52 38 CADDEO Allan/LOUVEL Jade Peugeot 206 Xs FA 6K 14:24,7 +04:08,9 +00:07,0
53 24 ROSSINI Stefanu/ALTANA Ludovic Renault Clio F2 14 17:26,8 +07:11,0 +03:02,1
54 20 MISERAZZI Fabrice/ROS Patrick Peugeot 205 F2 14 17:26,8 +07:11,0
Clt Equipage Voiture Gr/Cl Temps Ecart 1er Ecart préc. Catégories
Commentaires: © PatricK Soft  
(Temps forfaitaires=couleur bleue)
Classés:54

Epreuve: Groupe: Catégorie:

 
Retour
Classement ES5-Gradello - Verghija 3 (12.400 km)